Terminal Aerodrome Forecast
Issued by NWS

Home | Current Version | Previous Version | Graphics & Text | Print | Product List | Glossary On
Versions: 1 2 3 4 5 6 7 8 9 10 11 12 13 14 15 16 17 18 19 20 21 22 23
965
FTUS42 KMHX 220624 AAA
TAFPGV
TAF AMD
KPGV 220624Z 2206/2306 00000KT P6SM OVC015
     FM221300 20005KT P6SM VCSH SCT008 BKN026
     FM221500 21005KT P6SM VCSH BKN050
     FM230000 19005KT P6SM VCTS BKN050CB
     FM230400 20005KT P6SM VCTS BKN030CB
      AMD LTD TO CLD VIS AND WIND=

USA.gov is the U.S. government's official web portal to all federal, state and local government web resources and services.